Location: Asheville, NC
(35.6000°N, 82.5500°W)
Time: 08:54:46
(UTC-05:00)

Vanguard 2 Rocket - Pass Details

Date: 07 December 2017
Orbit: 556 x 3326 km, 32.9° (Epoch: 17 January)

Event Time Altitude Azimuth Distance (km) Brightness Sun altitude
Rises 00:23:53 0° 270° (W) 6,827 11.4 -77.0°
Enters shadow 00:26:18 - 270° (W) 6,358 11.1 -77.0°
Reaches altitude 10° 00:28:06 10° 269° (W) 6,012 - -77.0°
Maximum altitude 00:48:23 81° 186° (S) 3,281 - -75.8°
Drops below altitude 10° 01:05:46 10° 102° (ESE) 5,271 - -73.9°
Exits shadow 01:06:05 - 102° (ESE) 5,337 10.8 -73.8°
Sets 01:09:11 0° 102° (ESE) 5,991 11.2 -73.4°
